Year,Month,Day,Hour,Minute,Value (Times are PST for temperature in C)
2008,08,04,00,00,8.60
2008,08,04,00,01,8.60
2008,08,04,00,02,8.60
2008,08,04,00,03,8.60
2008,08,04,00,04,8.60
2008,08,04,00,05,8.60
2008,08,04,00,06,8.50
2008,08,04,00,07,8.50
2008,08,04,00,08,8.50
2008,08,04,00,09,8.50
2008,08,04,00,10,8.50
2008,08,04,00,11,8.50
2008,08,04,00,12,8.50
2008,08,04,00,13,8.50
2008,08,04,00,14,8.50
2008,08,04,00,15,8.40
2008,08,04,00,16,8.40
2008,08,04,00,17,8.40
2008,08,04,00,18,8.40
2008,08,04,00,19,8.40
2008,08,04,00,20,8.40
2008,08,04,00,21,8.40
2008,08,04,00,22,8.40
2008,08,04,00,23,8.40
2008,08,04,00,24,8.30
2008,08,04,00,25,8.30
2008,08,04,00,26,8.30
2008,08,04,00,27,8.30
2008,08,04,00,28,8.30
2008,08,04,00,29,8.30
2008,08,04,00,30,8.30
2008,08,04,00,31,8.20
2008,08,04,00,32,8.20
2008,08,04,00,33,8.20
2008,08,04,00,34,8.20
2008,08,04,00,35,8.20
2008,08,04,00,36,8.20
2008,08,04,00,37,8.20
2008,08,04,00,38,8.20
2008,08,04,00,39,8.20
2008,08,04,00,40,8.20
2008,08,04,00,41,8.20
2008,08,04,00,42,8.20
2008,08,04,00,43,8.20
2008,08,04,00,44,8.20
2008,08,04,00,45,8.20
2008,08,04,00,46,8.20
2008,08,04,00,47,8.20
2008,08,04,00,48,8.20
2008,08,04,00,49,8.20
2008,08,04,00,50,8.20
2008,08,04,00,51,8.20
2008,08,04,00,52,8.20
2008,08,04,00,53,8.20
2008,08,04,00,54,8.20
2008,08,04,00,55,8.20
2008,08,04,00,56,8.20
2008,08,04,00,57,8.20
2008,08,04,00,58,8.20
2008,08,04,00,59,8.20
2008,08,04,01,00,8.20
2008,08,04,01,01,8.10
2008,08,04,01,02,8.10
2008,08,04,01,03,8.10
2008,08,04,01,04,8.10
2008,08,04,01,05,8.10
2008,08,04,01,06,8.10
2008,08,04,01,07,8.10
2008,08,04,01,08,8.10
2008,08,04,01,09,8.10
2008,08,04,01,10,8.10
2008,08,04,01,11,8.10
2008,08,04,01,12,8.10
2008,08,04,01,13,8.10
2008,08,04,01,14,8.10
2008,08,04,01,15,8.10
2008,08,04,01,16,8.10
2008,08,04,01,17,8.10
2008,08,04,01,18,8.10
2008,08,04,01,19,8.10
2008,08,04,01,20,8.10
2008,08,04,01,21,8.00
2008,08,04,01,22,8.00
2008,08,04,01,23,8.00
2008,08,04,01,24,8.00
2008,08,04,01,25,8.00
2008,08,04,01,26,8.00
2008,08,04,01,27,8.00
2008,08,04,01,28,8.00
2008,08,04,01,29,8.00
2008,08,04,01,30,8.10
2008,08,04,01,31,8.10
2008,08,04,01,32,8.20
2008,08,04,01,33,8.20
2008,08,04,01,34,8.20
2008,08,04,01,35,8.20
2008,08,04,01,36,8.20
2008,08,04,01,37,8.20
2008,08,04,01,38,8.20
2008,08,04,01,39,8.20
2008,08,04,01,40,8.10
2008,08,04,01,41,8.10
2008,08,04,01,42,8.20
2008,08,04,01,43,8.20
2008,08,04,01,44,8.20
2008,08,04,01,45,8.30
2008,08,04,01,46,8.30
2008,08,04,01,47,8.40
2008,08,04,01,48,8.40
2008,08,04,01,49,8.50
2008,08,04,01,50,8.50
2008,08,04,01,51,8.60
2008,08,04,01,52,8.60
2008,08,04,01,53,8.60
2008,08,04,01,54,8.60
2008,08,04,01,55,8.60
2008,08,04,01,56,8.60
2008,08,04,01,57,8.60
2008,08,04,01,58,8.50
2008,08,04,01,59,8.50
2008,08,04,02,00,8.50
2008,08,04,02,01,8.40
2008,08,04,02,02,8.40
2008,08,04,02,03,8.40
2008,08,04,02,04,8.30
2008,08,04,02,05,8.30
2008,08,04,02,06,8.20
2008,08,04,02,07,8.20
2008,08,04,02,08,8.20
2008,08,04,02,09,8.20
2008,08,04,02,10,8.20
2008,08,04,02,11,8.10
2008,08,04,02,12,8.10
2008,08,04,02,13,8.10
2008,08,04,02,14,8.10
2008,08,04,02,15,8.10
2008,08,04,02,16,8.10
2008,08,04,02,17,8.10
2008,08,04,02,18,8.10
2008,08,04,02,19,8.10
2008,08,04,02,20,8.10
2008,08,04,02,21,8.00
2008,08,04,02,22,8.00
2008,08,04,02,23,7.90
2008,08,04,02,24,7.80
2008,08,04,02,25,7.80
2008,08,04,02,26,7.80
2008,08,04,02,27,7.80
2008,08,04,02,28,7.80
2008,08,04,02,29,7.80
2008,08,04,02,30,7.80
2008,08,04,02,31,7.80
2008,08,04,02,32,7.80
2008,08,04,02,33,7.80
2008,08,04,02,34,7.80
2008,08,04,02,35,7.80
2008,08,04,02,36,7.80
2008,08,04,02,37,7.80
2008,08,04,02,38,7.80
2008,08,04,02,39,7.80
2008,08,04,02,40,7.80
2008,08,04,02,41,7.80
2008,08,04,02,42,7.80
2008,08,04,02,43,7.80
2008,08,04,02,44,7.80
2008,08,04,02,45,7.80
2008,08,04,02,46,7.80
2008,08,04,02,47,7.90
2008,08,04,02,48,8.00
2008,08,04,02,49,8.00
2008,08,04,02,50,8.00
2008,08,04,02,51,8.00
2008,08,04,02,52,8.00
2008,08,04,02,53,7.90
2008,08,04,02,54,7.90
2008,08,04,02,55,7.90
2008,08,04,02,56,7.90
2008,08,04,02,57,7.90
2008,08,04,02,58,7.90
2008,08,04,02,59,7.90
2008,08,04,03,00,7.90
2008,08,04,03,01,7.90
2008,08,04,03,02,7.80
2008,08,04,03,03,7.80
2008,08,04,03,04,7.80
2008,08,04,03,05,7.80
2008,08,04,03,06,7.80
2008,08,04,03,07,7.80
2008,08,04,03,08,7.80
2008,08,04,03,09,7.70
2008,08,04,03,10,7.60
2008,08,04,03,11,7.60
2008,08,04,03,12,7.60
2008,08,04,03,13,7.50
2008,08,04,03,14,7.50
2008,08,04,03,15,7.50
2008,08,04,03,16,7.40
2008,08,04,03,17,7.40
2008,08,04,03,18,7.40
2008,08,04,03,19,7.30
2008,08,04,03,20,7.30
2008,08,04,03,21,7.30
2008,08,04,03,22,7.30
2008,08,04,03,23,7.30
2008,08,04,03,24,7.40
2008,08,04,03,25,7.40
2008,08,04,03,26,7.40
2008,08,04,03,27,7.50
2008,08,04,03,28,7.50
2008,08,04,03,29,7.50
2008,08,04,03,30,7.50
2008,08,04,03,31,7.50
2008,08,04,03,32,7.50
2008,08,04,03,33,7.50
2008,08,04,03,34,7.50
2008,08,04,03,35,7.50
2008,08,04,03,36,7.50
2008,08,04,03,37,7.50
2008,08,04,03,38,7.50
2008,08,04,03,39,7.40
2008,08,04,03,40,7.40
2008,08,04,03,41,7.40
2008,08,04,03,42,7.40
2008,08,04,03,43,7.40
2008,08,04,03,44,7.40
2008,08,04,03,45,7.30
2008,08,04,03,46,7.30
2008,08,04,03,47,7.30
2008,08,04,03,48,7.30
2008,08,04,03,49,7.30
2008,08,04,03,50,7.30
2008,08,04,03,51,7.30
2008,08,04,03,52,7.30
2008,08,04,03,53,7.30
2008,08,04,03,54,7.30
2008,08,04,03,55,7.30
2008,08,04,03,56,7.30
2008,08,04,03,57,7.30
2008,08,04,03,58,7.30
2008,08,04,03,59,7.30
2008,08,04,04,00,7.30
2008,08,04,04,01,7.30
2008,08,04,04,02,7.30
2008,08,04,04,03,7.30
2008,08,04,04,04,7.30
2008,08,04,04,05,7.30
2008,08,04,04,06,7.30
2008,08,04,04,07,7.30
2008,08,04,04,08,7.40
2008,08,04,04,09,7.40
2008,08,04,04,10,7.40
2008,08,04,04,11,7.40
2008,08,04,04,12,7.40
2008,08,04,04,13,7.40
2008,08,04,04,14,7.40
2008,08,04,04,15,7.30
2008,08,04,04,16,7.30
2008,08,04,04,17,7.30
2008,08,04,04,18,7.30
2008,08,04,04,19,7.30
2008,08,04,04,20,7.30
2008,08,04,04,21,7.30
2008,08,04,04,22,7.30
2008,08,04,04,23,7.30
2008,08,04,04,24,7.20
2008,08,04,04,25,7.20
2008,08,04,04,26,7.20
2008,08,04,04,27,7.20
2008,08,04,04,28,7.20
2008,08,04,04,29,7.20
2008,08,04,04,30,7.20
2008,08,04,04,31,7.20
2008,08,04,04,32,7.10
2008,08,04,04,33,7.10
2008,08,04,04,34,7.10
2008,08,04,04,35,7.10
2008,08,04,04,36,7.00
2008,08,04,04,37,7.00
2008,08,04,04,38,7.00
2008,08,04,04,39,7.00
2008,08,04,04,40,7.00
2008,08,04,04,41,7.00
2008,08,04,04,42,7.00
2008,08,04,04,43,7.00
2008,08,04,04,44,7.10
2008,08,04,04,45,7.10
2008,08,04,04,46,7.10
2008,08,04,04,47,7.20
2008,08,04,04,48,7.20
2008,08,04,04,49,7.20
2008,08,04,04,50,7.20
2008,08,04,04,51,7.20
2008,08,04,04,52,7.20
2008,08,04,04,53,7.20
2008,08,04,04,54,7.20
2008,08,04,04,55,7.20
2008,08,04,04,56,7.20
2008,08,04,04,57,7.20
2008,08,04,04,58,7.20
2008,08,04,04,59,7.20
2008,08,04,05,00,7.20
2008,08,04,05,01,7.20
2008,08,04,05,02,7.20
2008,08,04,05,03,7.20
2008,08,04,05,04,7.20
2008,08,04,05,05,7.20
2008,08,04,05,06,7.20
2008,08,04,05,07,7.20
2008,08,04,05,08,7.20
2008,08,04,05,09,7.20
2008,08,04,05,10,7.20
2008,08,04,05,11,7.20
2008,08,04,05,12,7.20
2008,08,04,05,13,7.20
2008,08,04,05,14,7.10
2008,08,04,05,15,7.10
2008,08,04,05,16,7.10
2008,08,04,05,17,7.10
2008,08,04,05,18,7.00
2008,08,04,05,19,7.00
2008,08,04,05,20,7.00
2008,08,04,05,21,7.00
2008,08,04,05,22,7.00
2008,08,04,05,23,7.00
2008,08,04,05,24,7.00
2008,08,04,05,25,7.00
2008,08,04,05,26,7.00
2008,08,04,05,27,6.90
2008,08,04,05,28,6.90
2008,08,04,05,29,6.90
2008,08,04,05,30,6.90
2008,08,04,05,31,6.80
2008,08,04,05,32,6.80
2008,08,04,05,33,6.80
2008,08,04,05,34,6.80
2008,08,04,05,35,6.80
2008,08,04,05,36,6.80
2008,08,04,05,37,6.80
2008,08,04,05,38,6.80
2008,08,04,05,39,6.80
2008,08,04,05,40,6.80
2008,08,04,05,41,6.80
2008,08,04,05,42,6.80
2008,08,04,05,43,6.80
2008,08,04,05,44,6.80
2008,08,04,05,45,6.80
2008,08,04,05,46,6.80
2008,08,04,05,47,6.90
2008,08,04,05,48,7.00
2008,08,04,05,49,7.00
2008,08,04,05,50,7.00
2008,08,04,05,51,7.10
2008,08,04,05,52,7.10
2008,08,04,05,53,7.10
2008,08,04,05,54,7.10
2008,08,04,05,55,7.00
2008,08,04,05,56,7.00
2008,08,04,05,57,7.00
2008,08,04,05,58,6.90
2008,08,04,05,59,6.90
2008,08,04,06,00,6.90
2008,08,04,06,01,6.90
2008,08,04,06,02,6.80
2008,08,04,06,03,6.80
2008,08,04,06,04,6.80
2008,08,04,06,05,6.80
2008,08,04,06,06,6.80
2008,08,04,06,07,6.80
2008,08,04,06,08,6.80
2008,08,04,06,09,6.90
2008,08,04,06,10,6.90
2008,08,04,06,11,6.90
2008,08,04,06,12,7.00
2008,08,04,06,13,7.10
2008,08,04,06,14,7.20
2008,08,04,06,15,7.30
2008,08,04,06,16,7.30
2008,08,04,06,17,7.40
2008,08,04,06,18,7.40
2008,08,04,06,19,7.50
2008,08,04,06,20,7.50
2008,08,04,06,21,7.50
2008,08,04,06,22,7.50
2008,08,04,06,23,7.50
2008,08,04,06,24,7.60
2008,08,04,06,25,7.60
2008,08,04,06,26,7.60
2008,08,04,06,27,7.70
2008,08,04,06,28,7.70
2008,08,04,06,29,7.80
2008,08,04,06,30,7.80
2008,08,04,06,31,7.80
2008,08,04,06,32,7.80
2008,08,04,06,33,7.80
2008,08,04,06,34,7.80
2008,08,04,06,35,7.90
2008,08,04,06,36,7.90
2008,08,04,06,37,7.90
2008,08,04,06,38,7.90
2008,08,04,06,39,8.00
2008,08,04,06,40,8.00
2008,08,04,06,41,8.10
2008,08,04,06,42,8.20
2008,08,04,06,43,8.10
2008,08,04,06,44,8.10
2008,08,04,06,45,8.10
2008,08,04,06,46,8.00
2008,08,04,06,47,8.00
2008,08,04,06,48,8.00
2008,08,04,06,49,8.00
2008,08,04,06,50,8.00
2008,08,04,06,51,8.00
2008,08,04,06,52,8.00
2008,08,04,06,53,8.10
2008,08,04,06,54,8.10
2008,08,04,06,55,8.10
2008,08,04,06,56,8.10
2008,08,04,06,57,8.10
2008,08,04,06,58,8.10
2008,08,04,06,59,8.10
2008,08,04,07,00,8.10
2008,08,04,07,01,8.10
2008,08,04,07,02,8.10
2008,08,04,07,03,8.10
2008,08,04,07,04,8.10
2008,08,04,07,05,8.10
2008,08,04,07,06,8.20
2008,08,04,07,07,8.20
2008,08,04,07,08,8.20
2008,08,04,07,09,8.30
2008,08,04,07,10,8.30
2008,08,04,07,11,8.40
2008,08,04,07,12,8.40
2008,08,04,07,13,8.50
2008,08,04,07,14,8.50
2008,08,04,07,15,8.50
2008,08,04,07,16,8.60
2008,08,04,07,17,8.60
2008,08,04,07,18,8.60
2008,08,04,07,19,8.60
2008,08,04,07,20,8.50
2008,08,04,07,21,8.50
2008,08,04,07,22,8.40
2008,08,04,07,23,8.40
2008,08,04,07,24,8.40
2008,08,04,07,25,8.30
2008,08,04,07,26,8.30
2008,08,04,07,27,8.30
2008,08,04,07,28,8.30
2008,08,04,07,29,8.40
2008,08,04,07,30,8.40
2008,08,04,07,31,8.50
2008,08,04,07,32,8.50
2008,08,04,07,33,8.60
2008,08,04,07,34,8.70
2008,08,04,07,35,8.80
2008,08,04,07,36,8.90
2008,08,04,07,37,9.00
2008,08,04,07,38,9.00
2008,08,04,07,39,9.10
2008,08,04,07,40,9.20
2008,08,04,07,41,9.20
2008,08,04,07,42,9.20
2008,08,04,07,43,9.20
2008,08,04,07,44,9.20
2008,08,04,07,45,9.10
2008,08,04,07,46,9.10
2008,08,04,07,47,9.10
2008,08,04,07,48,9.10
2008,08,04,07,49,9.10
2008,08,04,07,50,9.10
2008,08,04,07,51,9.10
2008,08,04,07,52,9.10
2008,08,04,07,53,9.20
2008,08,04,07,54,9.30
2008,08,04,07,55,9.30
2008,08,04,07,56,9.40
2008,08,04,07,57,9.50
2008,08,04,07,58,9.50
2008,08,04,07,59,9.60
2008,08,04,08,00,9.60
2008,08,04,08,01,9.70
2008,08,04,08,02,9.80
2008,08,04,08,03,9.80
2008,08,04,08,04,9.90
2008,08,04,08,05,10.00
2008,08,04,08,06,10.10
2008,08,04,08,07,10.20
2008,08,04,08,08,10.30
2008,08,04,08,09,10.40
2008,08,04,08,10,10.60
2008,08,04,08,11,10.70
2008,08,04,08,12,10.80
2008,08,04,08,13,10.90
2008,08,04,08,14,10.90
2008,08,04,08,15,11.00
2008,08,04,08,16,11.10
2008,08,04,08,17,11.10
2008,08,04,08,18,11.20
2008,08,04,08,19,11.20
2008,08,04,08,20,11.30
2008,08,04,08,21,11.30
2008,08,04,08,22,11.40
2008,08,04,08,23,11.40
2008,08,04,08,24,11.40
2008,08,04,08,25,11.40
2008,08,04,08,26,11.40
2008,08,04,08,27,11.40
2008,08,04,08,28,11.40
2008,08,04,08,29,11.40
2008,08,04,08,30,11.50
2008,08,04,08,31,11.60
2008,08,04,08,32,11.60
2008,08,04,08,33,11.60
2008,08,04,08,34,11.70
2008,08,04,08,35,11.80
2008,08,04,08,36,11.90
2008,08,04,08,37,12.00
2008,08,04,08,38,12.10
2008,08,04,08,39,12.30
2008,08,04,08,40,12.30
2008,08,04,08,41,12.30
2008,08,04,08,42,12.30
2008,08,04,08,43,12.40
2008,08,04,08,44,12.50
2008,08,04,08,45,12.60
2008,08,04,08,46,12.80
2008,08,04,08,47,12.80
2008,08,04,08,48,12.80
2008,08,04,08,49,12.80
2008,08,04,08,50,12.90
2008,08,04,08,51,12.90
2008,08,04,08,52,12.90
2008,08,04,08,53,12.90
2008,08,04,08,54,12.90
2008,08,04,08,55,12.90
2008,08,04,08,56,12.80
2008,08,04,08,57,12.70
2008,08,04,08,58,12.60
2008,08,04,08,59,12.50
2008,08,04,09,00,12.40
2008,08,04,09,01,12.40
2008,08,04,09,02,12.40
2008,08,04,09,03,12.40
2008,08,04,09,04,12.40
2008,08,04,09,05,12.40
2008,08,04,09,06,12.40
2008,08,04,09,07,12.40
2008,08,04,09,08,12.40
2008,08,04,09,09,12.40
2008,08,04,09,10,12.30
2008,08,04,09,11,12.30
2008,08,04,09,12,12.20
2008,08,04,09,13,12.20
2008,08,04,09,14,12.20
2008,08,04,09,15,12.30
2008,08,04,09,16,12.30
2008,08,04,09,17,12.40
2008,08,04,09,18,12.50
2008,08,04,09,19,12.50
2008,08,04,09,20,12.60
2008,08,04,09,21,12.60
2008,08,04,09,22,12.60
2008,08,04,09,23,12.60
2008,08,04,09,24,12.50
2008,08,04,09,25,12.50
2008,08,04,09,26,12.50
2008,08,04,09,27,12.50
2008,08,04,09,28,12.50
2008,08,04,09,29,12.60
2008,08,04,09,30,12.70
2008,08,04,09,31,12.70
2008,08,04,09,32,12.80
2008,08,04,09,33,12.90
2008,08,04,09,34,13.00
2008,08,04,09,35,13.00
2008,08,04,09,36,13.20
2008,08,04,09,37,13.30
2008,08,04,09,38,13.40
2008,08,04,09,39,13.50
2008,08,04,09,40,13.60
2008,08,04,09,41,13.70
2008,08,04,09,42,13.80
2008,08,04,09,43,13.90
2008,08,04,09,44,14.00
2008,08,04,09,45,14.10
2008,08,04,09,46,14.20
2008,08,04,09,47,14.30
2008,08,04,09,48,14.40
2008,08,04,09,49,14.50
2008,08,04,09,50,14.60
2008,08,04,09,51,14.60
2008,08,04,09,52,14.70
2008,08,04,09,53,14.80
2008,08,04,09,54,14.90
2008,08,04,09,55,15.00
2008,08,04,09,56,15.10
2008,08,04,09,57,15.20
2008,08,04,09,58,15.30
2008,08,04,09,59,15.40
2008,08,04,10,00,15.40
2008,08,04,10,01,15.50
2008,08,04,10,02,15.60
2008,08,04,10,03,15.70
2008,08,04,10,04,15.80
2008,08,04,10,05,15.80
2008,08,04,10,06,15.80
2008,08,04,10,07,15.90
2008,08,04,10,08,16.00
2008,08,04,10,09,16.10
2008,08,04,10,10,16.10
2008,08,04,10,11,16.00
2008,08,04,10,12,15.90
2008,08,04,10,13,15.80
2008,08,04,10,14,15.90
2008,08,04,10,15,15.90
2008,08,04,10,16,15.90
2008,08,04,10,17,15.90
2008,08,04,10,18,15.90
2008,08,04,10,19,15.80
2008,08,04,10,20,15.80
2008,08,04,10,21,15.70
2008,08,04,10,22,15.60
2008,08,04,10,23,15.50
2008,08,04,10,24,15.50
2008,08,04,10,25,15.60
2008,08,04,10,26,15.70
2008,08,04,10,27,15.70
2008,08,04,10,28,15.80
2008,08,04,10,29,15.90
2008,08,04,10,30,15.90
2008,08,04,10,31,15.80
2008,08,04,10,32,15.70
2008,08,04,10,33,15.60
2008,08,04,10,34,15.60
2008,08,04,10,35,15.60
2008,08,04,10,36,15.60
2008,08,04,10,37,15.70
2008,08,04,10,38,15.70
2008,08,04,10,39,15.80
2008,08,04,10,40,15.90
2008,08,04,10,41,16.00
2008,08,04,10,42,16.20
2008,08,04,10,43,16.30
2008,08,04,10,44,16.40
2008,08,04,10,45,16.50
2008,08,04,10,46,16.60
2008,08,04,10,47,16.90
2008,08,04,10,48,17.00
2008,08,04,10,49,17.10
2008,08,04,10,50,17.20
2008,08,04,10,51,17.10
2008,08,04,10,52,17.20
2008,08,04,10,53,17.20
2008,08,04,10,54,17.30
2008,08,04,10,55,17.20
2008,08,04,10,56,17.10
2008,08,04,10,57,17.00
2008,08,04,10,58,16.90
2008,08,04,10,59,16.90
2008,08,04,11,00,16.70
2008,08,04,11,01,16.70
2008,08,04,11,02,16.70
2008,08,04,11,03,16.80
2008,08,04,11,04,16.70
2008,08,04,11,05,16.70
2008,08,04,11,06,16.70
2008,08,04,11,07,16.80
2008,08,04,11,08,16.70
2008,08,04,11,09,16.70
2008,08,04,11,10,16.70
2008,08,04,11,11,16.70
2008,08,04,11,12,16.70
2008,08,04,11,13,16.80
2008,08,04,11,14,16.90
2008,08,04,11,15,16.90
2008,08,04,11,16,16.80
2008,08,04,11,17,16.80
2008,08,04,11,18,16.80
2008,08,04,11,19,16.80
2008,08,04,11,20,16.80
2008,08,04,11,21,16.70
2008,08,04,11,22,16.70
2008,08,04,11,23,16.70
2008,08,04,11,24,16.60
2008,08,04,11,25,16.60
2008,08,04,11,26,16.60
2008,08,04,11,27,16.60
2008,08,04,11,28,16.70
2008,08,04,11,29,16.70
2008,08,04,11,30,16.80
2008,08,04,11,31,16.90
2008,08,04,11,32,17.00
2008,08,04,11,33,17.00
2008,08,04,11,34,17.00
2008,08,04,11,35,17.10
2008,08,04,11,36,17.10
2008,08,04,11,37,17.10
2008,08,04,11,38,17.10
2008,08,04,11,39,17.10
2008,08,04,11,40,17.00
2008,08,04,11,41,17.00
2008,08,04,11,42,17.00
2008,08,04,11,43,17.10
2008,08,04,11,44,17.20
2008,08,04,11,45,17.30
2008,08,04,11,46,17.30
2008,08,04,11,47,17.40
2008,08,04,11,48,17.40
2008,08,04,11,49,17.40
2008,08,04,11,50,17.50
2008,08,04,11,51,17.50
2008,08,04,11,52,17.60
2008,08,04,11,53,17.60
2008,08,04,11,54,17.70
2008,08,04,11,55,17.80
2008,08,04,11,56,17.90
2008,08,04,11,57,17.90
2008,08,04,11,58,17.90
2008,08,04,11,59,17.90
2008,08,04,12,00,17.90
2008,08,04,12,01,18.10
2008,08,04,12,02,18.20
2008,08,04,12,03,18.20
2008,08,04,12,04,18.20
2008,08,04,12,05,18.30
2008,08,04,12,06,18.30
2008,08,04,12,07,18.20
2008,08,04,12,08,18.20
2008,08,04,12,09,18.00
2008,08,04,12,10,17.90
2008,08,04,12,11,18.10
2008,08,04,12,12,18.10
2008,08,04,12,13,18.10
2008,08,04,12,14,18.10
2008,08,04,12,15,18.30
2008,08,04,12,16,18.30
2008,08,04,12,17,18.30
2008,08,04,12,18,18.30
2008,08,04,12,19,18.30
2008,08,04,12,20,18.20
2008,08,04,12,21,18.20
2008,08,04,12,22,18.20
2008,08,04,12,23,18.00
2008,08,04,12,24,17.90
2008,08,04,12,25,17.90
2008,08,04,12,26,17.80
2008,08,04,12,27,17.70
2008,08,04,12,28,17.50
2008,08,04,12,29,17.40
2008,08,04,12,30,17.30
2008,08,04,12,31,17.20
2008,08,04,12,32,17.00
2008,08,04,12,33,17.00
2008,08,04,12,34,17.10
2008,08,04,12,35,17.30
2008,08,04,12,36,17.40
2008,08,04,12,37,17.40
2008,08,04,12,38,17.20
2008,08,04,12,39,17.10
2008,08,04,12,40,17.00
2008,08,04,12,41,17.00
2008,08,04,12,42,17.10
2008,08,04,12,43,17.10
2008,08,04,12,44,17.10
2008,08,04,12,45,17.20
2008,08,04,12,46,17.30
2008,08,04,12,47,17.30
2008,08,04,12,48,17.40
2008,08,04,12,49,17.40
2008,08,04,12,50,17.40
2008,08,04,12,51,17.50
2008,08,04,12,52,17.40
2008,08,04,12,53,17.30
2008,08,04,12,54,17.40
2008,08,04,12,55,17.50
2008,08,04,12,56,17.60
2008,08,04,12,57,17.70
2008,08,04,12,58,17.60
2008,08,04,12,59,17.60
2008,08,04,13,00,17.70
2008,08,04,13,01,17.70
2008,08,04,13,02,17.70
2008,08,04,13,03,17.80
2008,08,04,13,04,17.90
2008,08,04,13,05,18.00
2008,08,04,13,06,18.20
2008,08,04,13,07,18.20
2008,08,04,13,08,18.20
2008,08,04,13,09,18.10
2008,08,04,13,10,17.90
2008,08,04,13,11,17.90
2008,08,04,13,12,17.90
2008,08,04,13,13,17.90
2008,08,04,13,14,17.90
2008,08,04,13,15,18.00
2008,08,04,13,16,18.10
2008,08,04,13,17,18.10
2008,08,04,13,18,18.10
2008,08,04,13,19,18.20
2008,08,04,13,20,18.20
2008,08,04,13,21,18.20
2008,08,04,13,22,18.20
2008,08,04,13,23,18.10
2008,08,04,13,24,18.10
2008,08,04,13,25,18.10
2008,08,04,13,26,18.00
2008,08,04,13,27,17.90
2008,08,04,13,28,17.80
2008,08,04,13,29,17.80
2008,08,04,13,30,17.70
2008,08,04,13,31,17.70
2008,08,04,13,32,17.70
2008,08,04,13,33,17.70
2008,08,04,13,34,17.70
2008,08,04,13,35,17.70
2008,08,04,13,36,17.70
2008,08,04,13,37,17.70
2008,08,04,13,38,17.60
2008,08,04,13,39,17.60
2008,08,04,13,40,17.70
2008,08,04,13,41,17.80
2008,08,04,13,42,17.80
2008,08,04,13,43,17.90
2008,08,04,13,44,18.00
2008,08,04,13,45,18.10
2008,08,04,13,46,18.20
2008,08,04,13,47,18.10
2008,08,04,13,48,18.10
2008,08,04,13,49,18.20
2008,08,04,13,50,18.20
2008,08,04,13,51,18.30
2008,08,04,13,52,18.30
2008,08,04,13,53,18.30
2008,08,04,13,54,18.30
2008,08,04,13,55,18.30
2008,08,04,13,56,18.30
2008,08,04,13,57,18.30
2008,08,04,13,58,18.40
2008,08,04,13,59,18.50
2008,08,04,14,00,18.50
2008,08,04,14,01,18.50
2008,08,04,14,02,18.40
2008,08,04,14,03,18.30
2008,08,04,14,04,18.30
2008,08,04,14,05,18.20
2008,08,04,14,06,18.20
2008,08,04,14,07,18.30
2008,08,04,14,08,18.40
2008,08,04,14,09,18.50
2008,08,04,14,10,18.40
2008,08,04,14,11,18.50
2008,08,04,14,12,18.60
2008,08,04,14,13,18.70
2008,08,04,14,14,18.60
2008,08,04,14,15,18.60
2008,08,04,14,16,18.70
2008,08,04,14,17,18.60
2008,08,04,14,18,18.60
2008,08,04,14,19,18.50
2008,08,04,14,20,18.50
2008,08,04,14,21,18.40
2008,08,04,14,22,18.40
2008,08,04,14,23,18.50
2008,08,04,14,24,18.50
2008,08,04,14,25,18.50
2008,08,04,14,26,18.50
2008,08,04,14,27,18.60
2008,08,04,14,28,18.60
2008,08,04,14,29,18.60
2008,08,04,14,30,18.70
2008,08,04,14,31,18.70
2008,08,04,14,32,18.70
2008,08,04,14,33,18.80
2008,08,04,14,34,19.00
2008,08,04,14,35,19.10
2008,08,04,14,36,19.10
2008,08,04,14,37,19.10
2008,08,04,14,38,19.10
2008,08,04,14,39,19.10
2008,08,04,14,40,19.10
2008,08,04,14,41,19.20
2008,08,04,14,42,19.30
2008,08,04,14,43,19.20
2008,08,04,14,44,19.10
2008,08,04,14,45,19.10
2008,08,04,14,46,19.10
2008,08,04,14,47,19.10
2008,08,04,14,48,19.10
2008,08,04,14,49,19.10
2008,08,04,14,50,19.00
2008,08,04,14,51,18.90
2008,08,04,14,52,18.90
2008,08,04,14,53,18.90
2008,08,04,14,54,18.90
2008,08,04,14,55,18.90
2008,08,04,14,56,19.00
2008,08,04,14,57,19.10
2008,08,04,14,58,19.10
2008,08,04,14,59,19.30
2008,08,04,15,00,19.30
2008,08,04,15,01,19.30
2008,08,04,15,02,19.40
2008,08,04,15,03,19.40
2008,08,04,15,04,19.50
2008,08,04,15,05,19.60
2008,08,04,15,06,19.70
2008,08,04,15,07,19.80
2008,08,04,15,08,19.90
2008,08,04,15,09,19.90
2008,08,04,15,10,19.90
2008,08,04,15,11,20.00
2008,08,04,15,12,20.10
2008,08,04,15,13,20.20
2008,08,04,15,14,20.20
2008,08,04,15,15,20.20
2008,08,04,15,16,20.20
2008,08,04,15,17,20.30
2008,08,04,15,18,20.30
2008,08,04,15,19,20.40
2008,08,04,15,20,20.30
2008,08,04,15,21,20.20
2008,08,04,15,22,20.20
2008,08,04,15,23,20.30
2008,08,04,15,24,20.30
2008,08,04,15,25,20.40
2008,08,04,15,26,20.40
2008,08,04,15,27,20.50
2008,08,04,15,28,20.50
2008,08,04,15,29,20.50
2008,08,04,15,30,20.70
2008,08,04,15,31,20.70
2008,08,04,15,32,20.80
2008,08,04,15,33,20.90
2008,08,04,15,34,20.90
2008,08,04,15,35,20.90
2008,08,04,15,36,20.90
2008,08,04,15,37,20.90
2008,08,04,15,38,21.00
2008,08,04,15,39,21.00
2008,08,04,15,40,21.00
2008,08,04,15,41,21.00
2008,08,04,15,42,21.10
2008,08,04,15,43,21.20
2008,08,04,15,44,21.20
2008,08,04,15,45,21.30
2008,08,04,15,46,21.40
2008,08,04,15,47,21.40
2008,08,04,15,48,21.40
2008,08,04,15,49,21.30
2008,08,04,15,50,21.10
2008,08,04,15,51,21.00
2008,08,04,15,52,21.00
2008,08,04,15,53,20.90
2008,08,04,15,54,20.90
2008,08,04,15,55,20.80
2008,08,04,15,56,20.90
2008,08,04,15,57,20.90
2008,08,04,15,58,20.90
2008,08,04,15,59,20.80
2008,08,04,16,00,20.70
2008,08,04,16,01,20.70
2008,08,04,16,02,20.70
2008,08,04,16,03,20.80
2008,08,04,16,04,20.80
2008,08,04,16,05,20.90
2008,08,04,16,06,21.00
2008,08,04,16,07,21.00
2008,08,04,16,08,21.10
2008,08,04,16,09,21.30
2008,08,04,16,10,21.30
2008,08,04,16,11,21.30
2008,08,04,16,12,21.40
2008,08,04,16,13,21.40
2008,08,04,16,14,21.30
2008,08,04,16,15,21.30
2008,08,04,16,16,21.40
2008,08,04,16,17,21.40
2008,08,04,16,18,21.50
2008,08,04,16,19,21.60
2008,08,04,16,20,21.60
2008,08,04,16,21,21.60
2008,08,04,16,22,21.60
2008,08,04,16,23,21.50
2008,08,04,16,24,21.40
2008,08,04,16,25,21.50
2008,08,04,16,26,21.60
2008,08,04,16,27,21.60
2008,08,04,16,28,21.60
2008,08,04,16,29,21.60
2008,08,04,16,30,21.70
2008,08,04,16,31,21.80
2008,08,04,16,32,21.80
2008,08,04,16,33,22.00
2008,08,04,16,34,22.00
2008,08,04,16,35,22.10
2008,08,04,16,36,22.10
2008,08,04,16,37,22.00
2008,08,04,16,38,22.00
2008,08,04,16,39,22.10
2008,08,04,16,40,22.10
2008,08,04,16,41,22.10
2008,08,04,16,42,22.00
2008,08,04,16,43,22.10
2008,08,04,16,44,22.20
2008,08,04,16,45,22.20
2008,08,04,16,46,22.30
2008,08,04,16,47,22.20
2008,08,04,16,48,22.20
2008,08,04,16,49,22.20
2008,08,04,16,50,22.20
2008,08,04,16,51,22.20
2008,08,04,16,52,22.20
2008,08,04,16,53,22.20
2008,08,04,16,54,22.20
2008,08,04,16,55,22.20
2008,08,04,16,56,22.20
2008,08,04,16,57,22.20
2008,08,04,16,58,22.20
2008,08,04,16,59,22.30
2008,08,04,17,00,22.40
2008,08,04,17,01,22.40
2008,08,04,17,02,22.30
2008,08,04,17,03,22.30
2008,08,04,17,04,22.30
2008,08,04,17,05,22.20
2008,08,04,17,06,22.20
2008,08,04,17,07,22.30
2008,08,04,17,08,22.40
2008,08,04,17,09,22.40
2008,08,04,17,10,22.40
2008,08,04,17,11,22.40
2008,08,04,17,12,22.40
2008,08,04,17,13,22.30
2008,08,04,17,14,22.30
2008,08,04,17,15,22.20
2008,08,04,17,16,22.20
2008,08,04,17,17,22.20
2008,08,04,17,18,22.10
2008,08,04,17,19,22.00
2008,08,04,17,20,22.10
2008,08,04,17,21,22.10
2008,08,04,17,22,22.30
2008,08,04,17,23,22.30
2008,08,04,17,24,22.40
2008,08,04,17,25,22.30
2008,08,04,17,26,22.30
2008,08,04,17,27,22.30
2008,08,04,17,28,22.20
2008,08,04,17,29,22.00
2008,08,04,17,30,22.00
2008,08,04,17,31,22.00
2008,08,04,17,32,22.00
2008,08,04,17,33,22.10
2008,08,04,17,34,22.10
2008,08,04,17,35,22.10
2008,08,04,17,36,22.10
2008,08,04,17,37,22.10
2008,08,04,17,38,22.10
2008,08,04,17,39,22.10
2008,08,04,17,40,22.00